Flag for USA

Past Weather in Point Washington Wildlife Management Area, Florida, USA — Yesterday and Last 2 Weeks

Now
63 °F

Passing clouds.


Feels Like: 63 °F
Forecast: 67 / 56 °F
Wind: No wind

Location: Tyndall Air Force Base

Current Time: Jan 18, 2019 at 6:22:12 pm

Latest Report: Jan 18, 2019 at 5:31 pm


Visibility: 10 mi

Pressure: 30.07 "Hg

Humidity: 94%

Dew Point: 61 °F

Location of Point Washington Wildlife Management AreaLocation

Past Weather in Point Washington Wildlife Management Area — Graph

°F

Point Washington Wildlife Management Area Temperature Yesterday

Maximum temperature yesterday: 62 °F (at 1:56 pm)
Minimum temperature yesterday: 37 °F (at 2:06 am)
Average temperature yesterday: 49 °F

High & Low Weather Summary for the Past Weeks

 TemperatureHumidityPressure
High70 °F (Jan 3, 5:01 pm)100% (Jan 4, 4:16 am)30.36 "Hg (Jan 4, 4:16 am)
Low37 °F (Jan 17, 2:06 am)25% (Jan 9, 2:56 pm)29.80 "Hg (Jan 4, 4:32 am)
Average55 °F77%30.17 "Hg
* Reported Jan 3 5:01 pm — Jan 18 4:56 pm, Point Washington Wildlife Management Area. Weather by CustomWeather, © 2019

Note: Actual official high and low records may vary slightly from our data, if they occured in-between our weather recording intervals... More about our weather records

Advertising

Point Washington Wildlife Management Area Weather History for the Previous 24 Hours

Scroll right to see more
 ConditionsComfort  
Time TempWeatherWind HumidityBarometerVisibility
4:56 pm
Fri, Jan 18
64 °FOvercast.5 mph90%30.07 "Hg10 mi
4:31 pm64 °FMostly cloudy.3 mph88%30.07 "Hg10 mi
3:56 pm65 °FBroken clouds.6 mph86%30.07 "Hg10 mi
3:41 pm66 °FMore clouds than sun.6 mph83%30.07 "Hg10 mi
3:11 pm66 °FMostly cloudy.7 mph83%30.07 "Hg10 mi
12:36 pm68 °FMostly cloudy.7 mph83%30.09 "Hg10 mi
12:06 pm68 °FMostly cloudy.8 mph83%30.11 "Hg10 mi
12:01 pm68 °FCloudy.8 mph83%30.11 "Hg10 mi
11:41 am70 °FBroken clouds.8 mph78%30.12 "Hg10 mi
11:21 am70 °FOvercast.10 mph78%30.14 "Hg10 mi
11:01 am70 °FPartly sunny.8 mph78%30.14 "Hg10 mi
10:21 am66 °FBroken clouds.5 mph88%30.16 "Hg10 mi
10:01 am66 °FSprinkles. Mostly cloudy.6 mph88%30.16 "Hg10 mi
9:41 am66 °FMostly cloudy.9 mph88%30.15 "Hg10 mi
9:31 am66 °FMostly cloudy.8 mph88%30.15 "Hg10 mi
8:56 am65 °FMore clouds than sun.9 mph90%30.14 "Hg10 mi
8:36 am64 °FCloudy.9 mph88%30.14 "Hg10 mi
7:56 am63 °FPassing clouds.10 mph94%30.13 "Hg10 mi
6:56 am60 °FSunny.10 mph96%30.12 "Hg10 mi
6:36 am59 °FFog.9 mph94%30.12 "Hg6 mi
5:56 am56 °FFog.6 mph96%30.12 "Hg6 mi
4:56 am58 °FFog.6 mph97%30.12 "Hg5 mi
4:36 am57 °FFog.6 mph94%30.13 "Hg5 mi
3:56 am57 °FFog.No wind95%30.14 "Hg6 mi
2:56 am58 °FPassing clouds.5 mph94%30.14 "Hg8 mi
1:56 am59 °FOvercast.6 mph93%30.15 "Hg10 mi
1:06 am57 °FMostly cloudy.8 mph94%30.16 "Hg10 mi
12:31 am57 °FPassing clouds.6 mph88%30.16 "Hg10 mi
12:06 am55 °FPassing clouds.6 mph94%30.17 "Hg10 mi
11:21 pm
Thu, Jan 17
55 °FPassing clouds.6 mph88%30.19 "Hg10 mi
10:56 pm55 °FMostly cloudy.5 mph90%30.19 "Hg10 mi
10:41 pm55 °FPartly cloudy.5 mph88%30.20 "Hg10 mi
10:36 pm55 °FOvercast.5 mph94%30.20 "Hg10 mi
10:11 pm57 °FPassing clouds.6 mph88%30.20 "Hg10 mi
9:56 pm57 °FMostly cloudy.6 mph88%30.20 "Hg10 mi
9:06 pm55 °FOvercast.6 mph88%30.20 "Hg10 mi
8:56 pm55 °FPassing clouds.7 mph89%30.20 "Hg10 mi
7:56 pm54 °FPartly cloudy.5 mph88%30.20 "Hg10 mi
6:56 pm56 °FClear.6 mph86%30.19 "Hg10 mi
Weather by CustomWeather, © 2019

See weather overview